Total_Precipitation_Accumulation
1.85 2.23 2.58 3.02 3.45 3.96 4.67 5.25 5.61 5.55 5.34 4.96 4.56 4.25 3.77 3.46 3.19 2.88 2.63 2.40 2.15 2.05 2.29 2.12 2.33 2.26 2.11 1.94 1.92 2.01 1.99 1.76 2.03 2.22 1.79 1.36 1.13 1.01 0.87 0.87 0.93 0.87 0.94
1.79 2.13 2.64 2.94 3.26 3.73 4.24 4.64 4.59 4.30 4.15 4.06 3.93 3.66 3.68 3.56 3.39 3.16 2.90 2.51 2.33 2.15 2.00 2.10 1.98 1.94 1.98 1.77 1.66 1.81 1.79 1.56 1.85 1.96 1.92 1.42 1.20 1.00 0.70 0.76 0.79 0.86 1.06
1.44 1.76 2.31 2.61 2.77 3.18 3.50 3.54 3.43 3.24 3.25 3.24 3.15 3.21 3.46 3.51 3.43 3.27 3.00 2.72 2.57 2.42 2.26 2.09 1.91 1.84 1.71 1.69 1.64 1.69 1.72 1.63 1.59 1.65 1.79 1.45 1.15 0.98 0.69 0.61 0.68 0.92 1.17
1.19 1.47 1.80 2.01 2.24 2.42 2.58 2.59 2.66 2.66 2.64 2.65 2.60 2.51 2.55 2.67 2.88 3.12 3.16 3.12 2.92 2.66 2.39 2.18 1.95 1.73 1.58 1.68 1.41 1.49 1.69 1.75 1.50 1.48 1.44 1.36 1.44 1.41 1.07 0.75 0.66 0.89 1.05
1.22 1.41 1.50 1.62 1.71 1.74 1.86 1.92 2.20 2.48 2.56 2.58 2.66 2.54 2.25 2.20 2.25 2.39 2.54 2.56 2.57 2.45 2.16 2.04 1.96 1.75 1.56 1.51 1.46 1.60 1.58 1.56 1.47 1.49 1.48 1.57 1.66 1.50 1.37 1.09 0.96 0.98 0.91
0.93 1.15 1.37 1.41 1.38 1.36 1.52 1.72 2.01 2.36 2.57 2.62 2.57 2.47 2.38 2.33 2.21 2.17 2.20 2.11 2.10 2.07 1.97 1.88 1.85 1.71 1.56 1.52 1.47 1.54 1.59 1.62 1.65 1.62 1.58 1.64 1.60 1.60 1.74 1.52 1.31 1.22 1.04
0.69 0.69 0.86 1.08 1.06 1.03 1.16 1.44 1.62 1.87 2.07 2.17 2.17 2.07 2.16 2.28 2.15 2.00 1.90 1.80 1.68 1.63 1.66 1.74 1.80 1.66 1.57 1.63 1.73 1.68 1.59 1.63 1.69 1.64 1.69 1.73 1.66 1.74 1.88 1.84 1.60 1.46 1.35
0.50 0.47 0.53 0.66 0.87 0.88 0.91 1.03 1.27 1.44 1.61 1.70 1.82 1.91 2.06 2.18 2.13 2.26 2.05 1.87 1.62 1.51 1.57 1.73 1.78 1.68 1.60 1.55 1.77 1.74 1.72 1.75 1.72 1.63 1.85 1.88 1.69 1.86 2.07 2.17 2.15 1.92 1.82
0.39 0.39 0.46 0.64 0.65 0.63 0.67 0.77 0.98 1.12 1.28 1.47 1.65 1.72 1.69 1.70 1.81 1.98 1.98 1.83 1.77 1.62 1.70 1.74 1.85 1.90 1.92 1.90 1.97 1.89 1.90 2.03 2.01 1.95 2.03 2.03 1.92 1.96 2.07 2.25 2.38 2.38 2.25
0.37 0.38 0.41 0.48 0.48 0.46 0.57 0.77 0.92 0.95 1.21 1.52 1.68 1.59 1.56 1.45 1.58 1.64 1.68 1.75 1.73 1.73 1.77 1.76 1.79 1.89 1.95 1.96 2.04 2.01 2.08 2.26 2.27 2.32 2.39 2.28 2.07 2.11 2.14 2.22 2.40 2.59 2.61
0.42 0.43 0.42 0.41 0.51 0.45 0.50 0.65 0.79 0.94 1.22 1.53 1.71 1.69 1.54 1.51 1.61 1.52 1.50 1.64 1.71 1.70 1.74 1.74 1.70 1.67 1.75 1.92 2.07 2.06 2.20 2.31 2.36 2.37 2.30 2.20 2.21 2.26 2.16 2.23 2.33 2.50 2.67
0.35 0.33 0.29 0.33 0.32 0.31 0.42 0.73 1.07 1.42 1.57 1.80 2.02 2.00 1.71 1.55 1.46 1.32 1.33 1.54 1.74 1.77 1.74 1.71 1.66 1.60 1.66 1.89 2.04 2.16 2.39 2.49 2.41 2.32 2.27 2.16 2.26 2.34 2.26 2.26 2.21 2.26 2.51
0.33 0.34 0.29 0.35 0.29 0.28 0.34 0.51 0.68 1.01 1.32 1.61 1.85 1.79 1.54 1.38 1.34 1.34 1.40 1.56 1.69 1.69 1.63 1.64 1.69 1.79 1.90 2.06 2.19 2.30 2.44 2.41 2.30 2.31 2.23 2.10 2.12 2.10 2.16 2.21 2.17 2.12 2.17
0.42 0.38 0.35 0.32 0.30 0.32 0.32 0.42 0.51 0.60 0.79 1.17 1.43 1.43 1.30 1.24 1.27 1.34 1.37 1.36 1.39 1.45 1.50 1.68 1.90 2.06 2.17 2.26 2.32 2.31 2.26 2.24 2.14 2.06 1.98 1.96 2.02 2.05 2.05 1.99 1.97 1.98 2.06
0.42 0.39 0.38 0.41 0.44 0.48 0.44 0.44 0.48 0.53 0.69 1.06 1.27 1.25 1.22 1.21 1.18 1.19 1.26 1.31 1.38 1.46 1.66 1.83 1.93 1.95 1.99 2.06 2.18 2.18 2.12 2.07 1.97 1.85 1.68 1.68 1.92 1.99 1.94 1.79 1.86 1.93 1.97
0.42 0.39 0.33 0.41 0.49 0.51 0.51 0.50 0.51 0.56 0.69 0.96 1.18 1.17 1.15 1.12 1.07 1.10 1.19 1.36 1.46 1.62 1.79 1.83 1.82 1.76 1.52 1.59 1.70 1.75 1.77 1.77 1.72 1.60 1.53 1.56 1.65 1.64 1.60 1.56 1.56 1.61 1.69
0.41 0.33 0.35 0.48 0.67 0.61 0.59 0.64 0.60 0.61 0.74 0.95 1.12 1.20 1.17 1.18 1.15 1.13 1.29 1.48 1.64 1.79 1.90 1.88 1.83 1.74 1.66 1.53 1.38 1.36 1.40 1.52 1.53 1.55 1.60 1.41 1.30 1.42 1.42 1.46 1.40 1.34 1.39
0.49 0.47 0.45 0.51 0.60 0.58 0.62 0.67 0.67 0.68 0.79 0.99 1.20 1.28 1.22 1.25 1.34 1.36 1.45 1.67 1.89 2.03 2.04 1.98 1.89 1.87 1.82 1.71 1.47 1.37 1.32 1.47 1.52 1.50 1.53 1.52 1.45 1.44 1.52 1.54 1.45 1.32 1.28
0.60 0.62 0.66 0.63 0.68 0.72 0.73 0.74 0.81 0.85 0.93 1.02 1.19 1.29 1.34 1.43 1.47 1.52 1.69 1.91 2.10 2.12 2.07 2.10 2.05 2.01 2.04 1.86 1.51 1.34 1.34 1.52 1.55 1.54 1.51 1.49 1.45 1.49 1.36 1.32 1.32 1.31 1.27
0.70 0.68 0.74 0.78 0.81 0.86 0.91 0.91 0.97 1.09 1.25 1.34 1.41 1.59 1.77 1.93 2.01 2.06 2.13 2.17 2.23 2.15 2.11 2.11 2.13 2.08 2.08 1.98 1.48 1.25 1.27 1.47 1.52 1.59 1.57 1.47 1.34 1.31 1.18 1.15 1.29 1.27 1.25
0.64 0.69 0.73 0.81 0.83 0.87 1.01 1.16 1.23 1.34 1.49 1.62 1.70 1.90 2.19 2.36 2.35 2.36 2.30 2.24 2.25 2.25 2.22 2.15 2.13 2.10 2.04 1.96 1.54 1.34 1.37 1.52 1.62 1.62 1.59 1.53 1.39 1.19 1.12 1.06 1.10 1.15 1.13
0.59 0.64 0.70 0.76 0.87 1.00 1.23 1.48 1.57 1.54 1.66 1.84 2.00 2.18 2.41 2.37 2.29 2.46 2.40 2.37 2.43 2.40 2.30 2.23 2.15 2.16 2.11 1.94 1.63 1.39 1.44 1.59 1.71 1.78 1.73 1.64 1.42 1.18 1.07 0.98 0.95 0.91 0.85
0.56 0.62 0.69 0.80 0.91 1.13 1.49 1.75 1.79 1.86 1.93 2.04 2.14 2.20 2.29 2.47 2.62 2.68 2.60 2.52 2.50 2.44 2.27 2.16 2.04 1.97 2.03 2.03 1.61 1.35 1.41 1.49 1.54 1.71 1.74 1.48 1.24 1.09 0.94 0.90 0.88 0.78 0.73
0.58 0.64 0.74 0.90 1.09 1.27 1.57 1.73 1.77 1.84 1.91 1.94 1.92 1.99 2.14 2.27 2.35 2.58 2.64 2.55 2.40 2.35 2.30 2.19 2.05 1.97 2.00 2.00 1.67 1.35 1.33 1.40 1.39 1.47 1.54 1.40 1.22 1.08 0.96 0.90 0.86 0.80 0.81
0.59 0.70 0.82 0.93 1.05 1.22 1.40 1.49 1.67 1.77 1.87 1.88 1.82 1.82 1.83 1.91 1.97 2.06 2.17 2.18 2.19 2.02 1.92 1.82 1.76 1.76 1.80 1.77 1.52 1.34 1.33 1.44 1.50 1.45 1.48 1.48 1.35 1.21 1.10 1.07 1.10 1.10 1.06
0.60 0.72 0.85 0.96 1.06 1.21 1.41 1.49 1.62 1.71 1.76 1.72 1.65 1.66 1.66 1.70 1.75 1.78 1.73 1.58 1.52 1.37 1.23 1.19 1.15 1.17 1.23 1.32 1.17 1.05 1.14 1.29 1.35 1.28 1.31 1.42 1.41 1.33 1.25 1.19 1.19 1.17 1.11